owner,sensor,date,latitude,longitude,relative_humidity,qcFlag 
COMPS,ioos:station:USF.COMPS:FHP:1,2014-08-01T00:00:00Z,28.1530,-82.8010,57.68,1111122 
COMPS,ioos:station:USF.COMPS:FHP:1,2014-08-01T00:06:00Z,28.1530,-82.8010,58.6,1111122 
COMPS,ioos:station:USF.COMPS:FHP:1,2014-08-01T00:12:00Z,28.1530,-82.8010,58.92,1111122 
COMPS,ioos:station:USF.COMPS:FHP:1,2014-08-01T00:18:00Z,28.1530,-82.8010,59.43,1111122 
COMPS,ioos:station:USF.COMPS:FHP:1,2014-08-01T00:24:00Z,28.1530,-82.8010,58.34,1111122 
COMPS,ioos:station:USF.COMPS:FHP:1,2014-08-01T00:30:00Z,28.1530,-82.8010,58.66,1111122 
COMPS,ioos:station:USF.COMPS:FHP:1,2014-08-01T00:36:00Z,28.1530,-82.8010,58.44,1111122 
COMPS,ioos:station:USF.COMPS:FHP:1,2014-08-01T00:42:00Z,28.1530,-82.8010,59.32,1111122 
COMPS,ioos:station:USF.COMPS:FHP:1,2014-08-01T00:48:00Z,28.1530,-82.8010,58.39,1111122 
COMPS,ioos:station:USF.COMPS:FHP:1,2014-08-01T00:54:00Z,28.1530,-82.8010,58.66,1111122 
COMPS,ioos:station:USF.COMPS:FHP:1,2014-08-01T01:00:00Z,28.1530,-82.8010,58.22,1111122 
COMPS,ioos:station:USF.COMPS:FHP:1,2014-08-01T01:06:00Z,28.1530,-82.8010,58.48,1111122 
COMPS,ioos:station:USF.COMPS:FHP:1,2014-08-01T01:12:00Z,28.1530,-82.8010,59.32,1111122 
COMPS,ioos:station:USF.COMPS:FHP:1,2014-08-01T01:18:00Z,28.1530,-82.8010,59.55,1111122 
COMPS,ioos:station:USF.COMPS:FHP:1,2014-08-01T01:24:00Z,28.1530,-82.8010,58.61,1111122 
COMPS,ioos:station:USF.COMPS:FHP:1,2014-08-01T01:30:00Z,28.1530,-82.8010,59.28,1111122 
COMPS,ioos:station:USF.COMPS:FHP:1,2014-08-01T01:36:00Z,28.1530,-82.8010,59.37,1111122 
COMPS,ioos:station:USF.COMPS:FHP:1,2014-08-01T01:42:00Z,28.1530,-82.8010,59.77,1111122 
COMPS,ioos:station:USF.COMPS:FHP:1,2014-08-01T01:48:00Z,28.1530,-82.8010,60.89,1111122 
COMPS,ioos:station:USF.COMPS:FHP:1,2014-08-01T01:54:00Z,28.1530,-82.8010,59.49,1111122 
COMPS,ioos:station:USF.COMPS:FHP:1,2014-08-01T02:00:00Z,28.1530,-82.8010,59.81,1111122 
COMPS,ioos:station:USF.COMPS:FHP:1,2014-08-01T02:06:00Z,28.1530,-82.8010,59.73,1111122 
COMPS,ioos:station:USF.COMPS:FHP:1,2014-08-01T02:12:00Z,28.1530,-82.8010,59.41,1111122 
COMPS,ioos:station:USF.COMPS:FHP:1,2014-08-01T02:18:00Z,28.1530,-82.8010,59.61,1111122 
COMPS,ioos:station:USF.COMPS:FHP:1,2014-08-01T02:24:00Z,28.1530,-82.8010,60.17,1111122 
COMPS,ioos:station:USF.COMPS:FHP:1,2014-08-01T02:30:00Z,28.1530,-82.8010,59.85,1111122 
COMPS,ioos:station:USF.COMPS:FHP:1,2014-08-01T02:36:00Z,28.1530,-82.8010,60.27,1111122 
COMPS,ioos:station:USF.COMPS:FHP:1,2014-08-01T02:42:00Z,28.1530,-82.8010,59.99,1111122 
COMPS,ioos:station:USF.COMPS:FHP:1,2014-08-01T02:48:00Z,28.1530,-82.8010,60.65,1111122 
COMPS,ioos:station:USF.COMPS:FHP:1,2014-08-01T02:54:00Z,28.1530,-82.8010,59.4,1111122 
COMPS,ioos:station:USF.COMPS:FHP:1,2014-08-01T03:00:00Z,28.1530,-82.8010,60.19,1111122 
COMPS,ioos:station:USF.COMPS:FHP:1,2014-08-01T03:06:00Z,28.1530,-82.8010,59.27,1111122 
COMPS,ioos:station:USF.COMPS:FHP:1,2014-08-01T03:12:00Z,28.1530,-82.8010,59.02,1111122 
COMPS,ioos:station:USF.COMPS:FHP:1,2014-08-01T03:18:00Z,28.1530,-82.8010,59.43,1111122 
COMPS,ioos:station:USF.COMPS:FHP:1,2014-08-01T03:24:00Z,28.1530,-82.8010,58.87,1111122 
COMPS,ioos:station:USF.COMPS:FHP:1,2014-08-01T03:30:00Z,28.1530,-82.8010,58.55,1111122 
COMPS,ioos:station:USF.COMPS:FHP:1,2014-08-01T03:36:00Z,28.1530,-82.8010,63.14,1111122 
COMPS,ioos:station:USF.COMPS:FHP:1,2014-08-01T03:42:00Z,28.1530,-82.8010,61.56,1111122 
COMPS,ioos:station:USF.COMPS:FHP:1,2014-08-01T03:48:00Z,28.1530,-82.8010,60.62,1111122 
COMPS,ioos:station:USF.COMPS:FHP:1,2014-08-01T03:54:00Z,28.1530,-82.8010,60.63,1111122 
COMPS,ioos:station:USF.COMPS:FHP:1,2014-08-01T04:00:00Z,28.1530,-82.8010,61.52,1111122 
COMPS,ioos:station:USF.COMPS:FHP:1,2014-08-01T04:06:00Z,28.1530,-82.8010,61.7,1111122 
COMPS,ioos:station:USF.COMPS:FHP:1,2014-08-01T04:12:00Z,28.1530,-82.8010,63.32,1111122 
COMPS,ioos:station:USF.COMPS:FHP:1,2014-08-01T04:18:00Z,28.1530,-82.8010,64.79,1111122 
COMPS,ioos:station:USF.COMPS:FHP:1,2014-08-01T04:24:00Z,28.1530,-82.8010,65.7,1111122 
COMPS,ioos:station:USF.COMPS:FHP:1,2014-08-01T04:30:00Z,28.1530,-82.8010,64.27,1111122 
COMPS,ioos:station:USF.COMPS:FHP:1,2014-08-01T04:36:00Z,28.1530,-82.8010,64.48,1111122 
COMPS,ioos:station:USF.COMPS:FHP:1,2014-08-01T04:42:00Z,28.1530,-82.8010,66.25,1111122 
COMPS,ioos:station:USF.COMPS:FHP:1,2014-08-01T04:48:00Z,28.1530,-82.8010,63.47,1111122 
COMPS,ioos:station:USF.COMPS:FHP:1,2014-08-01T04:54:00Z,28.1530,-82.8010,67.13,1111122 
COMPS,ioos:station:USF.COMPS:FHP:1,2014-08-01T05:00:00Z,28.1530,-82.8010,67.72,1111122 
COMPS,ioos:station:USF.COMPS:FHP:1,2014-08-01T05:06:00Z,28.1530,-82.8010,64.68,1111122 
COMPS,ioos:station:USF.COMPS:FHP:1,2014-08-01T05:12:00Z,28.1530,-82.8010,61.86,1111122 
COMPS,ioos:station:USF.COMPS:FHP:1,2014-08-01T05:18:00Z,28.1530,-82.8010,62.35,1111122 
COMPS,ioos:station:USF.COMPS:FHP:1,2014-08-01T05:24:00Z,28.1530,-82.8010,63.07,1111122 
COMPS,ioos:station:USF.COMPS:FHP:1,2014-08-01T05:30:00Z,28.1530,-82.8010,66.74,1111122 
COMPS,ioos:station:USF.COMPS:FHP:1,2014-08-01T05:36:00Z,28.1530,-82.8010,67.45,1111122 
COMPS,ioos:station:USF.COMPS:FHP:1,2014-08-01T05:42:00Z,28.1530,-82.8010,67.26,1111122 
COMPS,ioos:station:USF.COMPS:FHP:1,2014-08-01T05:48:00Z,28.1530,-82.8010,66.41,1111122 
COMPS,ioos:station:USF.COMPS:FHP:1,2014-08-01T05:54:00Z,28.1530,-82.8010,66.54,1111122 
COMPS,ioos:station:USF.COMPS:FHP:1,2014-08-01T06:00:00Z,28.1530,-82.8010,67.28,1111122 
COMPS,ioos:station:USF.COMPS:FHP:1,2014-08-01T06:06:00Z,28.1530,-82.8010,67.9,1111122 
COMPS,ioos:station:USF.COMPS:FHP:1,2014-08-01T06:12:00Z,28.1530,-82.8010,68.26,1111122 
COMPS,ioos:station:USF.COMPS:FHP:1,2014-08-01T06:18:00Z,28.1530,-82.8010,67.84,1111122 
COMPS,ioos:station:USF.COMPS:FHP:1,2014-08-01T06:24:00Z,28.1530,-82.8010,68.34,1111122 
COMPS,ioos:station:USF.COMPS:FHP:1,2014-08-01T06:30:00Z,28.1530,-82.8010,69.55,1111122 
COMPS,ioos:station:USF.COMPS:FHP:1,2014-08-01T06:36:00Z,28.1530,-82.8010,70.32,1111122 
COMPS,ioos:station:USF.COMPS:FHP:1,2014-08-01T06:42:00Z,28.1530,-82.8010,70.3,1111122 
COMPS,ioos:station:USF.COMPS:FHP:1,2014-08-01T06:48:00Z,28.1530,-82.8010,70.74,1111122 
COMPS,ioos:station:USF.COMPS:FHP:1,2014-08-01T06:54:00Z,28.1530,-82.8010,70.82,1111122 
COMPS,ioos:station:USF.COMPS:FHP:1,2014-08-01T07:00:00Z,28.1530,-82.8010,73.1,1111122 
COMPS,ioos:station:USF.COMPS:FHP:1,2014-08-01T07:06:00Z,28.1530,-82.8010,73.1,1111122 
COMPS,ioos:station:USF.COMPS:FHP:1,2014-08-01T07:12:00Z,28.1530,-82.8010,70.88,1111122 
COMPS,ioos:station:USF.COMPS:FHP:1,2014-08-01T07:18:00Z,28.1530,-82.8010,71.9,1111122 
COMPS,ioos:station:USF.COMPS:FHP:1,2014-08-01T07:24:00Z,28.1530,-82.8010,72.8,1111122 
COMPS,ioos:station:USF.COMPS:FHP:1,2014-08-01T07:30:00Z,28.1530,-82.8010,71.66,1111122 
COMPS,ioos:station:USF.COMPS:FHP:1,2014-08-01T07:36:00Z,28.1530,-82.8010,72.71,1111122 
COMPS,ioos:station:USF.COMPS:FHP:1,2014-08-01T07:42:00Z,28.1530,-82.8010,71.8,1111122 
COMPS,ioos:station:USF.COMPS:FHP:1,2014-08-01T07:48:00Z,28.1530,-82.8010,73.04,1111122 
COMPS,ioos:station:USF.COMPS:FHP:1,2014-08-01T07:54:00Z,28.1530,-82.8010,76.59,1111122 
COMPS,ioos:station:USF.COMPS:FHP:1,2014-08-01T08:00:00Z,28.1530,-82.8010,79.34,1111122 
COMPS,ioos:station:USF.COMPS:FHP:1,2014-08-01T08:06:00Z,28.1530,-82.8010,80.72,1111122 
COMPS,ioos:station:USF.COMPS:FHP:1,2014-08-01T08:12:00Z,28.1530,-82.8010,81.11,1111122 
COMPS,ioos:station:USF.COMPS:FHP:1,2014-08-01T08:18:00Z,28.1530,-82.8010,81.71,1111122 
COMPS,ioos:station:USF.COMPS:FHP:1,2014-08-01T08:24:00Z,28.1530,-82.8010,81.11,1111122 
COMPS,ioos:station:USF.COMPS:FHP:1,2014-08-01T08:30:00Z,28.1530,-82.8010,80.32,1111122 
COMPS,ioos:station:USF.COMPS:FHP:1,2014-08-01T08:36:00Z,28.1530,-82.8010,80.48,1111122 
COMPS,ioos:station:USF.COMPS:FHP:1,2014-08-01T08:42:00Z,28.1530,-82.8010,80.65,1111122 
COMPS,ioos:station:USF.COMPS:FHP:1,2014-08-01T08:48:00Z,28.1530,-82.8010,80.78,1111122 
COMPS,ioos:station:USF.COMPS:FHP:1,2014-08-01T08:54:00Z,28.1530,-82.8010,79.21,1111122 
COMPS,ioos:station:USF.COMPS:FHP:1,2014-08-01T09:00:00Z,28.1530,-82.8010,76.36,1111122 
COMPS,ioos:station:USF.COMPS:FHP:1,2014-08-01T09:06:00Z,28.1530,-82.8010,76.58,1111122 
COMPS,ioos:station:USF.COMPS:FHP:1,2014-08-01T09:12:00Z,28.1530,-82.8010,75.33,1111122 
COMPS,ioos:station:USF.COMPS:FHP:1,2014-08-01T09:18:00Z,28.1530,-82.8010,74.46,1111122 
COMPS,ioos:station:USF.COMPS:FHP:1,2014-08-01T09:24:00Z,28.1530,-82.8010,74.42,1111122 
COMPS,ioos:station:USF.COMPS:FHP:1,2014-08-01T09:30:00Z,28.1530,-82.8010,74.32,1111122 
COMPS,ioos:station:USF.COMPS:FHP:1,2014-08-01T09:36:00Z,28.1530,-82.8010,74.45,1111122 
COMPS,ioos:station:USF.COMPS:FHP:1,2014-08-01T09:42:00Z,28.1530,-82.8010,73.95,1111122 
COMPS,ioos:station:USF.COMPS:FHP:1,2014-08-01T09:48:00Z,28.1530,-82.8010,74.77,1111122 
COMPS,ioos:station:USF.COMPS:FHP:1,2014-08-01T09:54:00Z,28.1530,-82.8010,78.08,1111122 
COMPS,ioos:station:USF.COMPS:FHP:1,2014-08-01T10:00:00Z,28.1530,-82.8010,75.15,1111122 
COMPS,ioos:station:USF.COMPS:FHP:1,2014-08-01T10:06:00Z,28.1530,-82.8010,74.84,1111122 
COMPS,ioos:station:USF.COMPS:FHP:1,2014-08-01T10:12:00Z,28.1530,-82.8010,74.39,1111122 
COMPS,ioos:station:USF.COMPS:FHP:1,2014-08-01T10:18:00Z,28.1530,-82.8010,75.05,1111122 
COMPS,ioos:station:USF.COMPS:FHP:1,2014-08-01T10:24:00Z,28.1530,-82.8010,76.93,1111122 
COMPS,ioos:station:USF.COMPS:FHP:1,2014-08-01T10:30:00Z,28.1530,-82.8010,76.38,1111122 
COMPS,ioos:station:USF.COMPS:FHP:1,2014-08-01T10:36:00Z,28.1530,-82.8010,74.78,1111122 
COMPS,ioos:station:USF.COMPS:FHP:1,2014-08-01T10:42:00Z,28.1530,-82.8010,75.76,1111122 
COMPS,ioos:station:USF.COMPS:FHP:1,2014-08-01T10:48:00Z,28.1530,-82.8010,77.8,1111122 
COMPS,ioos:station:USF.COMPS:FHP:1,2014-08-01T10:54:00Z,28.1530,-82.8010,77.46,1111122 
COMPS,ioos:station:USF.COMPS:FHP:1,2014-08-01T11:00:00Z,28.1530,-82.8010,79.74,1111122 
COMPS,ioos:station:USF.COMPS:FHP:1,2014-08-01T11:06:00Z,28.1530,-82.8010,81.66,1111122 
COMPS,ioos:station:USF.COMPS:FHP:1,2014-08-01T11:12:00Z,28.1530,-82.8010,82.74,1111122 
COMPS,ioos:station:USF.COMPS:FHP:1,2014-08-01T11:18:00Z,28.1530,-82.8010,82.74,1111122 
COMPS,ioos:station:USF.COMPS:FHP:1,2014-08-01T11:24:00Z,28.1530,-82.8010,82.64,1111122 
COMPS,ioos:station:USF.COMPS:FHP:1,2014-08-01T11:30:00Z,28.1530,-82.8010,81.51,1111122 
COMPS,ioos:station:USF.COMPS:FHP:1,2014-08-01T11:36:00Z,28.1530,-82.8010,80.7,1111122 
COMPS,ioos:station:USF.COMPS:FHP:1,2014-08-01T11:42:00Z,28.1530,-82.8010,79.56,1111122 
COMPS,ioos:station:USF.COMPS:FHP:1,2014-08-01T11:48:00Z,28.1530,-82.8010,77.53,1111122 
COMPS,ioos:station:USF.COMPS:FHP:1,2014-08-01T11:54:00Z,28.1530,-82.8010,75.76,1111122 
COMPS,ioos:station:USF.COMPS:FHP:1,2014-08-01T12:00:00Z,28.1530,-82.8010,74.64,1111122 
COMPS,ioos:station:USF.COMPS:FHP:1,2014-08-01T12:06:00Z,28.1530,-82.8010,72.97,1111122 
COMPS,ioos:station:USF.COMPS:FHP:1,2014-08-01T12:12:00Z,28.1530,-82.8010,70.68,1111122 
COMPS,ioos:station:USF.COMPS:FHP:1,2014-08-01T12:18:00Z,28.1530,-82.8010,69.07,1111122 
COMPS,ioos:station:USF.COMPS:FHP:1,2014-08-01T12:24:00Z,28.1530,-82.8010,67.54,1111122 
COMPS,ioos:station:USF.COMPS:FHP:1,2014-08-01T12:30:00Z,28.1530,-82.8010,68.13,1111122 
COMPS,ioos:station:USF.COMPS:FHP:1,2014-08-01T12:36:00Z,28.1530,-82.8010,68.19,1111122 
COMPS,ioos:station:USF.COMPS:FHP:1,2014-08-01T12:42:00Z,28.1530,-82.8010,67.83,1111122 
COMPS,ioos:station:USF.COMPS:FHP:1,2014-08-01T12:48:00Z,28.1530,-82.8010,67.77,1111122 
COMPS,ioos:station:USF.COMPS:FHP:1,2014-08-01T12:54:00Z,28.1530,-82.8010,65.79,1111122 
COMPS,ioos:station:USF.COMPS:FHP:1,2014-08-01T13:00:00Z,28.1530,-82.8010,67.36,1111122 
COMPS,ioos:station:USF.COMPS:FHP:1,2014-08-01T13:06:00Z,28.1530,-82.8010,67.46,1111122 
COMPS,ioos:station:USF.COMPS:FHP:1,2014-08-01T13:12:00Z,28.1530,-82.8010,65.66,1111122 
COMPS,ioos:station:USF.COMPS:FHP:1,2014-08-01T13:18:00Z,28.1530,-82.8010,64.03,1111122 
COMPS,ioos:station:USF.COMPS:FHP:1,2014-08-01T13:24:00Z,28.1530,-82.8010,63.62,1111122 
COMPS,ioos:station:USF.COMPS:FHP:1,2014-08-01T13:30:00Z,28.1530,-82.8010,62.14,1111122 
COMPS,ioos:station:USF.COMPS:FHP:1,2014-08-01T13:36:00Z,28.1530,-82.8010,60.31,1111122 
COMPS,ioos:station:USF.COMPS:FHP:1,2014-08-01T13:42:00Z,28.1530,-82.8010,60.19,1111122 
COMPS,ioos:station:USF.COMPS:FHP:1,2014-08-01T13:48:00Z,28.1530,-82.8010,60.33,1111122 
COMPS,ioos:station:USF.COMPS:FHP:1,2014-08-01T13:54:00Z,28.1530,-82.8010,59.59,1111122 
COMPS,ioos:station:USF.COMPS:FHP:1,2014-08-01T14:00:00Z,28.1530,-82.8010,59.6,1111122 
COMPS,ioos:station:USF.COMPS:FHP:1,2014-08-01T14:06:00Z,28.1530,-82.8010,60.24,1111122 
COMPS,ioos:station:USF.COMPS:FHP:1,2014-08-01T14:12:00Z,28.1530,-82.8010,59.84,1111122 
COMPS,ioos:station:USF.COMPS:FHP:1,2014-08-01T14:18:00Z,28.1530,-82.8010,60.38,1111122 
COMPS,ioos:station:USF.COMPS:FHP:1,2014-08-01T14:24:00Z,28.1530,-82.8010,60.77,1111122 
COMPS,ioos:station:USF.COMPS:FHP:1,2014-08-01T14:30:00Z,28.1530,-82.8010,60.41,1111122 
COMPS,ioos:station:USF.COMPS:FHP:1,2014-08-01T14:36:00Z,28.1530,-82.8010,61.0,1111122 
COMPS,ioos:station:USF.COMPS:FHP:1,2014-08-01T14:42:00Z,28.1530,-82.8010,61.52,1111122 
COMPS,ioos:station:USF.COMPS:FHP:1,2014-08-01T14:48:00Z,28.1530,-82.8010,61.27,1111122 
COMPS,ioos:station:USF.COMPS:FHP:1,2014-08-01T14:54:00Z,28.1530,-82.8010,61.19,1111122 
COMPS,ioos:station:USF.COMPS:FHP:1,2014-08-01T15:00:00Z,28.1530,-82.8010,61.66,1111122 
COMPS,ioos:station:USF.COMPS:FHP:1,2014-08-01T15:06:00Z,28.1530,-82.8010,61.74,1111122 
COMPS,ioos:station:USF.COMPS:FHP:1,2014-08-01T15:12:00Z,28.1530,-82.8010,61.32,1111122 
COMPS,ioos:station:USF.COMPS:FHP:1,2014-08-01T15:18:00Z,28.1530,-82.8010,61.49,1111122 
COMPS,ioos:station:USF.COMPS:FHP:1,2014-08-01T15:24:00Z,28.1530,-82.8010,61.5,1111122 
COMPS,ioos:station:USF.COMPS:FHP:1,2014-08-01T15:30:00Z,28.1530,-82.8010,61.09,1111122 
COMPS,ioos:station:USF.COMPS:FHP:1,2014-08-01T15:36:00Z,28.1530,-82.8010,61.97,1111122 
COMPS,ioos:station:USF.COMPS:FHP:1,2014-08-01T15:42:00Z,28.1530,-82.8010,61.98,1111122 
COMPS,ioos:station:USF.COMPS:FHP:1,2014-08-01T15:48:00Z,28.1530,-82.8010,62.36,1111122 
COMPS,ioos:station:USF.COMPS:FHP:1,2014-08-01T15:54:00Z,28.1530,-82.8010,61.9,1111122 
COMPS,ioos:station:USF.COMPS:FHP:1,2014-08-01T16:00:00Z,28.1530,-82.8010,62.43,1111122 
COMPS,ioos:station:USF.COMPS:FHP:1,2014-08-01T16:06:00Z,28.1530,-82.8010,63.71,1111122 
COMPS,ioos:station:USF.COMPS:FHP:1,2014-08-01T16:12:00Z,28.1530,-82.8010,62.19,1111122 
COMPS,ioos:station:USF.COMPS:FHP:1,2014-08-01T16:18:00Z,28.1530,-82.8010,61.17,1111122 
COMPS,ioos:station:USF.COMPS:FHP:1,2014-08-01T16:24:00Z,28.1530,-82.8010,62.0,1111122 
COMPS,ioos:station:USF.COMPS:FHP:1,2014-08-01T16:30:00Z,28.1530,-82.8010,63.71,1111122 
COMPS,ioos:station:USF.COMPS:FHP:1,2014-08-01T16:36:00Z,28.1530,-82.8010,64.56,1111122 
COMPS,ioos:station:USF.COMPS:FHP:1,2014-08-01T16:42:00Z,28.1530,-82.8010,62.8,1111122 
COMPS,ioos:station:USF.COMPS:FHP:1,2014-08-01T16:48:00Z,28.1530,-82.8010,62.69,1111122 
COMPS,ioos:station:USF.COMPS:FHP:1,2014-08-01T16:54:00Z,28.1530,-82.8010,64.18,1111122 
COMPS,ioos:station:USF.COMPS:FHP:1,2014-08-01T17:00:00Z,28.1530,-82.8010,63.4,1111122 
COMPS,ioos:station:USF.COMPS:FHP:1,2014-08-01T17:06:00Z,28.1530,-82.8010,63.45,1111122 
COMPS,ioos:station:USF.COMPS:FHP:1,2014-08-01T17:12:00Z,28.1530,-82.8010,63.08,1111122 
COMPS,ioos:station:USF.COMPS:FHP:1,2014-08-01T17:18:00Z,28.1530,-82.8010,63.44,1111122 
COMPS,ioos:station:USF.COMPS:FHP:1,2014-08-01T17:24:00Z,28.1530,-82.8010,62.49,1111122 
COMPS,ioos:station:USF.COMPS:FHP:1,2014-08-01T17:30:00Z,28.1530,-82.8010,63.23,1111122 
COMPS,ioos:station:USF.COMPS:FHP:1,2014-08-01T17:36:00Z,28.1530,-82.8010,63.22,1111122 
COMPS,ioos:station:USF.COMPS:FHP:1,2014-08-01T17:42:00Z,28.1530,-82.8010,62.22,1111122 
COMPS,ioos:station:USF.COMPS:FHP:1,2014-08-01T17:48:00Z,28.1530,-82.8010,61.6,1111122 
COMPS,ioos:station:USF.COMPS:FHP:1,2014-08-01T17:54:00Z,28.1530,-82.8010,59.8,1111122 
COMPS,ioos:station:USF.COMPS:FHP:1,2014-08-01T18:00:00Z,28.1530,-82.8010,61.1,1111122 
COMPS,ioos:station:USF.COMPS:FHP:1,2014-08-01T18:06:00Z,28.1530,-82.8010,60.23,1111122 
COMPS,ioos:station:USF.COMPS:FHP:1,2014-08-01T18:12:00Z,28.1530,-82.8010,60.81,1111122 
COMPS,ioos:station:USF.COMPS:FHP:1,2014-08-01T18:18:00Z,28.1530,-82.8010,60.64,1111122 
COMPS,ioos:station:USF.COMPS:FHP:1,2014-08-01T18:24:00Z,28.1530,-82.8010,61.44,1111122 
COMPS,ioos:station:USF.COMPS:FHP:1,2014-08-01T18:30:00Z,28.1530,-82.8010,61.07,1111122 
COMPS,ioos:station:USF.COMPS:FHP:1,2014-08-01T18:36:00Z,28.1530,-82.8010,61.42,1111122 
COMPS,ioos:station:USF.COMPS:FHP:1,2014-08-01T18:42:00Z,28.1530,-82.8010,62.43,1111122 
COMPS,ioos:station:USF.COMPS:FHP:1,2014-08-01T18:48:00Z,28.1530,-82.8010,61.5,1111122 
COMPS,ioos:station:USF.COMPS:FHP:1,2014-08-01T18:54:00Z,28.1530,-82.8010,61.52,1111122 
COMPS,ioos:station:USF.COMPS:FHP:1,2014-08-01T19:00:00Z,28.1530,-82.8010,61.34,1111122 
COMPS,ioos:station:USF.COMPS:FHP:1,2014-08-01T19:06:00Z,28.1530,-82.8010,62.45,1111122 
COMPS,ioos:station:USF.COMPS:FHP:1,2014-08-01T19:12:00Z,28.1530,-82.8010,62.49,1111122 
COMPS,ioos:station:USF.COMPS:FHP:1,2014-08-01T19:18:00Z,28.1530,-82.8010,61.16,1111122 
COMPS,ioos:station:USF.COMPS:FHP:1,2014-08-01T19:24:00Z,28.1530,-82.8010,60.52,1111122 
COMPS,ioos:station:USF.COMPS:FHP:1,2014-08-01T19:30:00Z,28.1530,-82.8010,60.46,1111122 
COMPS,ioos:station:USF.COMPS:FHP:1,2014-08-01T19:36:00Z,28.1530,-82.8010,61.05,1111122 
COMPS,ioos:station:USF.COMPS:FHP:1,2014-08-01T19:42:00Z,28.1530,-82.8010,61.48,1111122 
COMPS,ioos:station:USF.COMPS:FHP:1,2014-08-01T19:48:00Z,28.1530,-82.8010,61.72,1111122 
COMPS,ioos:station:USF.COMPS:FHP:1,2014-08-01T19:54:00Z,28.1530,-82.8010,61.55,1111122 
COMPS,ioos:station:USF.COMPS:FHP:1,2014-08-01T20:00:00Z,28.1530,-82.8010,61.23,1111122 
COMPS,ioos:station:USF.COMPS:FHP:1,2014-08-01T20:06:00Z,28.1530,-82.8010,60.65,1111122 
COMPS,ioos:station:USF.COMPS:FHP:1,2014-08-01T20:12:00Z,28.1530,-82.8010,62.18,1111122 
COMPS,ioos:station:USF.COMPS:FHP:1,2014-08-01T20:18:00Z,28.1530,-82.8010,60.5,1111122 
COMPS,ioos:station:USF.COMPS:FHP:1,2014-08-01T20:24:00Z,28.1530,-82.8010,59.57,1111122 
COMPS,ioos:station:USF.COMPS:FHP:1,2014-08-01T20:30:00Z,28.1530,-82.8010,59.69,1111122 
COMPS,ioos:station:USF.COMPS:FHP:1,2014-08-01T20:36:00Z,28.1530,-82.8010,60.24,1111122 
COMPS,ioos:station:USF.COMPS:FHP:1,2014-08-01T20:42:00Z,28.1530,-82.8010,57.34,1111122 
COMPS,ioos:station:USF.COMPS:FHP:1,2014-08-01T20:48:00Z,28.1530,-82.8010,57.57,1111122 
COMPS,ioos:station:USF.COMPS:FHP:1,2014-08-01T20:54:00Z,28.1530,-82.8010,58.34,1111122 
COMPS,ioos:station:USF.COMPS:FHP:1,2014-08-01T21:00:00Z,28.1530,-82.8010,57.18,1111122 
COMPS,ioos:station:USF.COMPS:FHP:1,2014-08-01T21:06:00Z,28.1530,-82.8010,59.3,1111122 
COMPS,ioos:station:USF.COMPS:FHP:1,2014-08-01T21:12:00Z,28.1530,-82.8010,59.2,1111122 
COMPS,ioos:station:USF.COMPS:FHP:1,2014-08-01T21:18:00Z,28.1530,-82.8010,59.81,1111122 
COMPS,ioos:station:USF.COMPS:FHP:1,2014-08-01T21:24:00Z,28.1530,-82.8010,60.02,1111122 
COMPS,ioos:station:USF.COMPS:FHP:1,2014-08-01T21:30:00Z,28.1530,-82.8010,59.14,1111122 
COMPS,ioos:station:USF.COMPS:FHP:1,2014-08-01T21:36:00Z,28.1530,-82.8010,59.67,1111122 
COMPS,ioos:station:USF.COMPS:FHP:1,2014-08-01T21:42:00Z,28.1530,-82.8010,60.46,1111122 
COMPS,ioos:station:USF.COMPS:FHP:1,2014-08-01T21:48:00Z,28.1530,-82.8010,60.18,1111122 
COMPS,ioos:station:USF.COMPS:FHP:1,2014-08-01T21:54:00Z,28.1530,-82.8010,59.2,1111122 
COMPS,ioos:station:USF.COMPS:FHP:1,2014-08-01T22:00:00Z,28.1530,-82.8010,58.11,1111122 
COMPS,ioos:station:USF.COMPS:FHP:1,2014-08-01T22:06:00Z,28.1530,-82.8010,61.51,1111122 
COMPS,ioos:station:USF.COMPS:FHP:1,2014-08-01T22:12:00Z,28.1530,-82.8010,61.87,1111122 
COMPS,ioos:station:USF.COMPS:FHP:1,2014-08-01T22:18:00Z,28.1530,-82.8010,63.1,1111122 
COMPS,ioos:station:USF.COMPS:FHP:1,2014-08-01T22:24:00Z,28.1530,-82.8010,65.09,1111122 
COMPS,ioos:station:USF.COMPS:FHP:1,2014-08-01T22:30:00Z,28.1530,-82.8010,63.58,1111122 
COMPS,ioos:station:USF.COMPS:FHP:1,2014-08-01T22:36:00Z,28.1530,-82.8010,64.91,1111122 
COMPS,ioos:station:USF.COMPS:FHP:1,2014-08-01T22:42:00Z,28.1530,-82.8010,65.57,1111122 
COMPS,ioos:station:USF.COMPS:FHP:1,2014-08-01T22:48:00Z,28.1530,-82.8010,65.34,1111122 
COMPS,ioos:station:USF.COMPS:FHP:1,2014-08-01T22:54:00Z,28.1530,-82.8010,66.46,1111122 
COMPS,ioos:station:USF.COMPS:FHP:1,2014-08-01T23:00:00Z,28.1530,-82.8010,66.41,1111122 
COMPS,ioos:station:USF.COMPS:FHP:1,2014-08-01T23:06:00Z,28.1530,-82.8010,65.2,1111122 
COMPS,ioos:station:USF.COMPS:FHP:1,2014-08-01T23:12:00Z,28.1530,-82.8010,65.36,1111122 
COMPS,ioos:station:USF.COMPS:FHP:1,2014-08-01T23:18:00Z,28.1530,-82.8010,65.16,1111122 
COMPS,ioos:station:USF.COMPS:FHP:1,2014-08-01T23:24:00Z,28.1530,-82.8010,65.29,1111122 
COMPS,ioos:station:USF.COMPS:FHP:1,2014-08-01T23:30:00Z,28.1530,-82.8010,64.6,1111122 
COMPS,ioos:station:USF.COMPS:FHP:1,2014-08-01T23:36:00Z,28.1530,-82.8010,62.73,1111122 
COMPS,ioos:station:USF.COMPS:FHP:1,2014-08-01T23:42:00Z,28.1530,-82.8010,62.47,1111122 
COMPS,ioos:station:USF.COMPS:FHP:1,2014-08-01T23:48:00Z,28.1530,-82.8010,63.01,1111122 
COMPS,ioos:station:USF.COMPS:FHP:1,2014-08-01T23:54:00Z,28.1530,-82.8010,63.3,1111122 
COMPS,ioos:station:USF.COMPS:FHP:1,2014-08-02T00:00:00Z,28.1530,-82.8010,62.97,1111122 
COMPS,ioos:station:USF.COMPS:FHP:1,2014-08-02T00:06:00Z,28.1530,-82.8010,64.15,1111122 
COMPS,ioos:station:USF.COMPS:FHP:1,2014-08-02T00:12:00Z,28.1530,-82.8010,64.93,1111122 
COMPS,ioos:station:USF.COMPS:FHP:1,2014-08-02T00:18:00Z,28.1530,-82.8010,64.43,1111122 
COMPS,ioos:station:USF.COMPS:FHP:1,2014-08-02T00:24:00Z,28.1530,-82.8010,64.98,1111122 
COMPS,ioos:station:USF.COMPS:FHP:1,2014-08-02T00:30:00Z,28.1530,-82.8010,64.59,1111122 
COMPS,ioos:station:USF.COMPS:FHP:1,2014-08-02T00:36:00Z,28.1530,-82.8010,66.97,1111122 
COMPS,ioos:station:USF.COMPS:FHP:1,2014-08-02T00:42:00Z,28.1530,-82.8010,66.44,1111122 
COMPS,ioos:station:USF.COMPS:FHP:1,2014-08-02T00:48:00Z,28.1530,-82.8010,65.01,1111122 
COMPS,ioos:station:USF.COMPS:FHP:1,2014-08-02T00:54:00Z,28.1530,-82.8010,65.74,1111122 
COMPS,ioos:station:USF.COMPS:FHP:1,2014-08-02T01:00:00Z,28.1530,-82.8010,66.99,1111122 
COMPS,ioos:station:USF.COMPS:FHP:1,2014-08-02T01:06:00Z,28.1530,-82.8010,67.2,1111122 
COMPS,ioos:station:USF.COMPS:FHP:1,2014-08-02T01:12:00Z,28.1530,-82.8010,66.11,1111122 
COMPS,ioos:station:USF.COMPS:FHP:1,2014-08-02T01:18:00Z,28.1530,-82.8010,66.22,1111122 
COMPS,ioos:station:USF.COMPS:FHP:1,2014-08-02T01:24:00Z,28.1530,-82.8010,68.23,1111122 
COMPS,ioos:station:USF.COMPS:FHP:1,2014-08-02T01:30:00Z,28.1530,-82.8010,66.89,1111122 
COMPS,ioos:station:USF.COMPS:FHP:1,2014-08-02T01:36:00Z,28.1530,-82.8010,65.37,1111122 
COMPS,ioos:station:USF.COMPS:FHP:1,2014-08-02T01:42:00Z,28.1530,-82.8010,65.07,1111122 
COMPS,ioos:station:USF.COMPS:FHP:1,2014-08-02T01:48:00Z,28.1530,-82.8010,64.08,1111122 
COMPS,ioos:station:USF.COMPS:FHP:1,2014-08-02T01:54:00Z,28.1530,-82.8010,59.98,1111122 
COMPS,ioos:station:USF.COMPS:FHP:1,2014-08-02T02:00:00Z,28.1530,-82.8010,61.69,1111122 
COMPS,ioos:station:USF.COMPS:FHP:1,2014-08-02T02:06:00Z,28.1530,-82.8010,61.41,1111122 
COMPS,ioos:station:USF.COMPS:FHP:1,2014-08-02T02:12:00Z,28.1530,-82.8010,60.03,1111122 
COMPS,ioos:station:USF.COMPS:FHP:1,2014-08-02T02:18:00Z,28.1530,-82.8010,63.07,1111122 
COMPS,ioos:station:USF.COMPS:FHP:1,2014-08-02T02:24:00Z,28.1530,-82.8010,65.39,1111122 
COMPS,ioos:station:USF.COMPS:FHP:1,2014-08-02T02:30:00Z,28.1530,-82.8010,64.95,1111122 
COMPS,ioos:station:USF.COMPS:FHP:1,2014-08-02T02:36:00Z,28.1530,-82.8010,64.22,1111122 
COMPS,ioos:station:USF.COMPS:FHP:1,2014-08-02T02:42:00Z,28.1530,-82.8010,64.13,1111122 
COMPS,ioos:station:USF.COMPS:FHP:1,2014-08-02T02:48:00Z,28.1530,-82.8010,64.09,1111122 
COMPS,ioos:station:USF.COMPS:FHP:1,2014-08-02T02:54:00Z,28.1530,-82.8010,64.53,1111122 
COMPS,ioos:station:USF.COMPS:FHP:1,2014-08-02T03:00:00Z,28.1530,-82.8010,64.67,1111122 
COMPS,ioos:station:USF.COMPS:FHP:1,2014-08-02T03:06:00Z,28.1530,-82.8010,65.22,1111122 